When you browse on this site, cookies collect data to enhance your experience and personalize the content and advertising you see.
Visit our Privacy Policy to learn more. By continuing to use the site, you agree to this use of cookies and data.
  • In Czech Republic
  • List of Countries
  • For 7 days
  • Water Temperature
  • Weather Map
  • Weather Widgets
  • user-avatar
    Login

    Hourly Weather Frankfurt am Mein

    Today, 23 October, Wednesday

    Time Temperature Precipitation Wind Pressure Humidity
    00:00 +9°C° 0 mm 1 mps 725 mmHg 82%
    01:00 +9°C° 0 mm 1 mps 725 mmHg 83%
    02:00 +9°C° 0 mm 1 mps 725 mmHg 84%
    03:00 +9°C° 0 mm 1 mps 724 mmHg 86%
    04:00 +8°C° 0 mm 1 mps 724 mmHg 87%
    05:00 +8°C° 0 mm 1 mps 723 mmHg 88%
    06:00 +8°C° 0 mm 1 mps 723 mmHg 90%
    07:00 +8°C° 0 mm 1 mps 723 mmHg 91%
    08:00 +10°C° 0 mm 1 mps 723 mmHg 87%
    09:00 +10°C° 0 mm 2 mps 723 mmHg 82%
    10:00 +13°C° 0 mm 2 mps 722 mmHg 78%
    11:00 +14°C° 0 mm 2 mps 722 mmHg 75%
    12:00 +16°C° 0 mm 2 mps 722 mmHg 73%
    13:00 +17°C° 0 mm 2 mps 721 mmHg 70%
    14:00 +17°C° 0 mm 2 mps 721 mmHg 72%
    15:00 +17°C° 0 mm 2 mps 720 mmHg 74%
    16:00 +17°C° 0 mm 2 mps 720 mmHg 76%
    17:00 +16°C° 0 mm 2 mps 719 mmHg 81%
    18:00 +15°C° 0 mm 2 mps 719 mmHg 86%
    19:00 +14°C° 0 mm 2 mps 719 mmHg 91%
    20:00 +13°C° 0 mm 2 mps 719 mmHg 92%
    21:00 +13°C° 0 mm 2 mps 718 mmHg 93%
    22:00 +13°C° 0 mm 2 mps 718 mmHg 93%
    23:00 +12°C° 0 mm 2 mps 718 mmHg 94%

    Tomorrow, 24 October, Thursday

    Time Temperature Precipitation Wind Pressure Humidity
    00:00 +12°C° 0 mm 2 mps 717 mmHg 94%
    01:00 +12°C° 0 mm 2 mps 717 mmHg 94%
    02:00 +12°C° 0 mm 1 mps 716 mmHg 94%
    03:00 +11°C° 0 mm 1 mps 716 mmHg 94%
    04:00 +11°C° 0 mm 1 mps 716 mmHg 94%
    05:00 +10°C° 0 mm 1 mps 716 mmHg 94%
    06:00 +10°C° 0 mm 1 mps 716 mmHg 95%
    07:00 +9°C° 0 mm 0 mps 715 mmHg 95%
    08:00 +11°C° 0 mm 1 mps 716 mmHg 91%
    09:00 +12°C° 0 mm 2 mps 716 mmHg 88%
    10:00 +13°C° 0 mm 2 mps 717 mmHg 85%
    11:00 +15°C° 0 mm 2 mps 717 mmHg 80%
    12:00 +16°C° 0 mm 2 mps 717 mmHg 75%
    13:00 +17°C° 0 mm 2 mps 717 mmHg 70%
    14:00 +17°C° 0 mm 2 mps 718 mmHg 72%
    15:00 +17°C° 0 mm 2 mps 718 mmHg 74%
    16:00 +17°C° 0 mm 2 mps 718 mmHg 76%
    17:00 +16°C° 0 mm 2 mps 718 mmHg 80%
    18:00 +14°C° 0 mm 2 mps 718 mmHg 83%
    19:00 +13°C° 0 mm 2 mps 718 mmHg 87%
    20:00 +13°C° 0 mm 2 mps 719 mmHg 85%
    21:00 +13°C° 0 mm 2 mps 719 mmHg 83%
    22:00 +13°C° 0 mm 2 mps 720 mmHg 81%
    23:00 +12°C° 0 mm 3 mps 720 mmHg 82%

    Day after tomorrow, 25 October, Friday

    Time Temperature Precipitation Wind Pressure Humidity
    00:00 +11°C° 0 mm 3 mps 720 mmHg 82%
    01:00 +11°C° 0 mm 4 mps 721 mmHg 83%
    02:00 +11°C° 0 mm 4 mps 721 mmHg 83%
    03:00 +11°C° 0 mm 3 mps 722 mmHg 83%
    04:00 +11°C° 0 mm 3 mps 723 mmHg 83%
    05:00 +10°C° 0 mm 3 mps 723 mmHg 84%
    06:00 +9°C° 0 mm 3 mps 723 mmHg 84%
    07:00 +9°C° 0 mm 3 mps 724 mmHg 85%
    08:00 +9°C° 0 mm 3 mps 724 mmHg 82%
    09:00 +10°C° 0 mm 3 mps 725 mmHg 79%
    10:00 +11°C° 0 mm 3 mps 725 mmHg 75%
    11:00 +11°C° 0 mm 3 mps 725 mmHg 72%
    12:00 +12°C° 0 mm 3 mps 725 mmHg 69%
    13:00 +13°C° 0 mm 3 mps 725 mmHg 66%
    14:00 +13°C° 0 mm 3 mps 724 mmHg 67%
    15:00 +13°C° 0 mm 3 mps 724 mmHg 69%
    16:00 +12°C° 0 mm 3 mps 723 mmHg 70%
    17:00 +12°C° 0 mm 3 mps 723 mmHg 75%
    18:00 +11°C° 0 mm 3 mps 723 mmHg 80%
    19:00 +10°C° 0 mm 2 mps 722 mmHg 86%
    20:00 +9°C° 0 mm 3 mps 722 mmHg 86%
    21:00 +9°C° 0 mm 3 mps 722 mmHg 86%
    22:00 +9°C° 0 mm 3 mps 722 mmHg 87%
    23:00 +9°C° 0 mm 3 mps 722 mmHg 86%

    26 October, Saturday

    Time Temperature Precipitation Wind Pressure Humidity
    00:00 +9°C° 0 mm 3 mps 721 mmHg 85%
    01:00 +9°C° 0 mm 3 mps 721 mmHg 83%
    02:00 +9°C° 0 mm 3 mps 721 mmHg 83%
    03:00 +9°C° 0 mm 3 mps 720 mmHg 82%
    04:00 +9°C° 0 mm 3 mps 720 mmHg 81%
    05:00 +9°C° 0 mm 3 mps 720 mmHg 81%
    06:00 +9°C° 0 mm 3 mps 720 mmHg 81%
    07:00 +9°C° 0 mm 3 mps 720 mmHg 81%
    08:00 +10°C° 0 mm 4 mps 721 mmHg 80%
    09:00 +10°C° 0 mm 4 mps 721 mmHg 78%
    10:00 +11°C° 0 mm 4 mps 721 mmHg 77%
    11:00 +11°C° 0.1 mm 4 mps 721 mmHg 78%
    12:00 +12°C° 0.1 mm 4 mps 721 mmHg 80%
    13:00 +12°C° 0.1 mm 3 mps 721 mmHg 81%
    14:00 +12°C° 0.1 mm 3 mps 721 mmHg 83%
    15:00 +11°C° 0.1 mm 3 mps 721 mmHg 86%
    16:00 +12°C° 0.1 mm 2 mps 721 mmHg 88%
    17:00 +10°C° 0.3 mm 2 mps 721 mmHg 89%
    18:00 +10°C° 0.3 mm 2 mps 721 mmHg 90%
    19:00 +9°C° 0.3 mm 2 mps 721 mmHg 92%
    20:00 +9°C° 0.6 mm 2 mps 721 mmHg 91%
    21:00 +8°C° 0.6 mm 3 mps 721 mmHg 90%
    22:00 +7°C° 0.6 mm 3 mps 722 mmHg 89%
    23:00 +7°C° 0.2 mm 3 mps 722 mmHg 87%

    27 October, Sunday

    Time Temperature Precipitation Wind Pressure Humidity
    00:00 +5°C° 0.2 mm 3 mps 722 mmHg 85%
    01:00 +5°C° 0.2 mm 3 mps 722 mmHg 84%
    02:00 +6°C° 0.1 mm 2 mps 723 mmHg 83%
    03:00 +5°C° 0.1 mm 2 mps 723 mmHg 82%
    04:00 +5°C° 0.1 mm 2 mps 724 mmHg 82%
    05:00 +5°C° 0 mm 2 mps 724 mmHg 83%
    06:00 +5°C° 0 mm 2 mps 725 mmHg 85%
    07:00 +5°C° 0 mm 2 mps 725 mmHg 87%
    08:00 +5°C° 0 mm 2 mps 726 mmHg 82%
    09:00 +6°C° 0 mm 2 mps 726 mmHg 77%
    10:00 +7°C° 0 mm 2 mps 727 mmHg 73%
    11:00 +7°C° 0 mm 2 mps 727 mmHg 66%
    12:00 +8°C° 0 mm 2 mps 727 mmHg 60%
    13:00 +9°C° 0 mm 2 mps 727 mmHg 54%
    14:00 +8°C° 0 mm 2 mps 727 mmHg 55%
    15:00 +9°C° 0 mm 1 mps 727 mmHg 55%
    16:00 +9°C° 0 mm 1 mps 726 mmHg 56%
    17:00 +8°C° 0 mm 1 mps 726 mmHg 61%
    18:00 +6°C° 0 mm 1 mps 726 mmHg 66%
    19:00 +5°C° 0 mm 1 mps 726 mmHg 71%
    20:00 +5°C° 0 mm 1 mps 726 mmHg 74%
    21:00 +4°C° 0 mm 1 mps 726 mmHg 77%
    22:00 +4°C° 0 mm 1 mps 726 mmHg 80%
    23:00 +4°C° 0 mm 1 mps 726 mmHg 82%

    28 October, Monday

    Time Temperature Precipitation Wind Pressure Humidity
    00:00 +3°C° 0 mm 1 mps 726 mmHg 84%
    01:00 +3°C° 0 mm 1 mps 726 mmHg 86%
    02:00 +3°C° 0 mm 1 mps 725 mmHg 86%
    03:00 +3°C° 0 mm 1 mps 725 mmHg 87%
    04:00 +3°C° 0 mm 1 mps 725 mmHg 87%
    05:00 +2°C° 0 mm 1 mps 725 mmHg 87%
    06:00 +2°C° 0 mm 1 mps 725 mmHg 87%
    07:00 +2°C° 0 mm 1 mps 725 mmHg 88%
    08:00 +4°C° 0 mm 1 mps 725 mmHg 82%
    09:00 +5°C° 0 mm 1 mps 725 mmHg 76%
    10:00 +7°C° 0 mm 1 mps 725 mmHg 70%
    11:00 +6°C° 0 mm 2 mps 725 mmHg 67%
    12:00 +7°C° 0 mm 2 mps 725 mmHg 64%
    13:00 +8°C° 0 mm 2 mps 725 mmHg 60%
    14:00 +8°C° 0 mm 2 mps 725 mmHg 62%
    15:00 +8°C° 0 mm 2 mps 725 mmHg 63%
    16:00 +8°C° 0 mm 2 mps 724 mmHg 65%
    17:00 +6°C° 0 mm 2 mps 724 mmHg 70%
    18:00 +5°C° 0 mm 2 mps 724 mmHg 75%
    19:00 +3°C° 0 mm 2 mps 724 mmHg 80%
    20:00 +3°C° 0 mm 2 mps 724 mmHg 80%
    21:00 +3°C° 0 mm 2 mps 725 mmHg 80%
    22:00 +2°C° 0 mm 2 mps 725 mmHg 80%
    23:00 +2°C° 0 mm 2 mps 725 mmHg 79%

    29 October, Tuesday

    Time Temperature Precipitation Wind Pressure Humidity
    00:00 +2°C° 0 mm 2 mps 725 mmHg 79%
    01:00 +3°C° 0 mm 1 mps 724 mmHg 78%
    02:00 +3°C° 0 mm 1 mps 725 mmHg 77%
    03:00 +3°C° 0 mm 1 mps 725 mmHg 77%
    04:00 +3°C° 0 mm 1 mps 725 mmHg 76%
    05:00 +3°C° 0 mm 1 mps 725 mmHg 75%
    06:00 +3°C° 0 mm 1 mps 725 mmHg 75%
    07:00 +3°C° 0 mm 1 mps 725 mmHg 74%
    08:00 +4°C° 0 mm 1 mps 726 mmHg 72%
    09:00 +4°C° 0 mm 2 mps 726 mmHg 69%
    10:00 +5°C° 0 mm 2 mps 727 mmHg 67%
    11:00 +6°C° 0 mm 2 mps 727 mmHg 63%
    12:00 +6°C° 0 mm 2 mps 727 mmHg 59%
    13:00 +7°C° 0 mm 3 mps 727 mmHg 56%
    14:00 +7°C° 0 mm 2 mps 728 mmHg 56%
    15:00 +7°C° 0 mm 2 mps 728 mmHg 57%
    16:00 +7°C° 0 mm 2 mps 728 mmHg 58%
    17:00 +5°C° 0 mm 2 mps 728 mmHg 64%
    18:00 +4°C° 0 mm 2 mps 729 mmHg 69%
    19:00 +3°C° 0 mm 2 mps 729 mmHg 75%
    20:00 +2°C° 0 mm 2 mps 730 mmHg 77%
    21:00 +1°C° 0 mm 3 mps 730 mmHg 80%
    22:00 +1°C° 0 mm 3 mps 731 mmHg 83%
    23:00 0°C° 0 mm 3 mps 731 mmHg 83%
    Show more